[[{"header":{"parameterUnit":"m.s-1","parameterCategory":1,"la1":30.2991,"la2":30.254,"lo1":-89.0895,"lo2":-89.0444,"dy":0.0017,"dx":0.0017,"nx":28,"ny":28,"refTime":"2024-10-02T03:00:00:Z","depth":0,"parameterNumber":2,"parameterNumberName":"U-component_of_WINDS"},"data":[0,0,0,0,0,0,0,0,0,0,0,0,0,0,0,0,0,0,0,0,0,0,0,0,0,0,0,0,0,0,0,0,0,0,0,0,0,0,0,0,0,0,0,0,0,0,0,0,0,0,0,0,0,0,0,0,0,0,-0.0794,-0.0793,0,-0.0695,-0.0694,-0.0693,-0.0675,-0.0676,-0.0677,-0.0677,-0.0574,-0.057,-0.0567,0,0,0,0,0,0,0,0,0,0,0,0,0,-0.0964,-0.0961,-0.0794,-0.0793,-0.0791,-0.0695,-0.0694,-0.0692,-0.0675,-0.0676,-0.0677,-0.0678,-0.0575,-0.0571,-0.0567,0,0,0,0,0,0,0,0,0,0,0,0,0,-0.088,-0.096,-0.0794,-0.0771,-0.0768,-0.0695,-0.0694,-0.0692,-0.0675,-0.0676,-0.0677,-0.0678,-0.0576,-0.0571,-0.0566,-0.0509,0,0,-0.055,-0.0548,0,0,0,0,0,0,0,0,-0.0885,-0.0874,-0.0776,-0.0773,-0.0769,-0.0699,-0.0716,-0.063,-0.0674,-0.071,-0.0677,-0.0679,-0.0614,-0.0606,-0.0585,-0.0504,-0.0499,-0.0549,-0.0546,-0.0544,-0.0542,0,0,0,0,0,0,0,-0.0891,-0.0878,-0.0755,-0.0774,-0.077,-0.0764,-0.0754,-0.0699,-0.0656,-0.0707,-0.0706,-0.0694,-0.0613,-0.059,-0.0582,-0.0498,-0.055,-0.0545,-0.0542,-0.054,-0.0362,-0.0361,0,0,0,0,0,0,-0.0901,-0.0883,-0.0758,-0.0752,-0.0831,-0.076,-0.0749,-0.072,-0.0657,-0.0648,-0.0693,-0.0694,-0.0598,-0.0588,-0.0578,-0.0505,-0.0544,-0.0539,-0.0536,-0.0364,-0.0362,-0.036,0,0,0,0,0,0,-0.0905,-0.089,-0.0762,-0.0817,-0.08,-0.0756,-0.0724,-0.0717,-0.0694,-0.0646,-0.0638,-0.0678,-0.0599,-0.0586,-0.0526,-0.0501,-0.0537,-0.0532,-0.0366,-0.0363,-0.0361,-0.036,0,0,0,0,0,0,-0.091,-0.0892,-0.087,-0.0816,-0.0797,-0.0712,-0.0723,-0.0714,-0.0686,-0.0685,-0.063,-0.0622,-0.0599,-0.0534,-0.052,-0.0495,-0.0528,-0.0368,-0.0365,-0.0362,-0.0362,-0.0358,-0.0354,0,0,0,0,0,-0.0916,-0.0874,-0.0869,-0.0854,-0.077,-0.071,-0.0699,-0.0674,-0.0684,-0.0661,-0.063,-0.0624,-0.0506,-0.0528,-0.0513,-0.0485,-0.0369,-0.0365,-0.0362,-0.0363,-0.0359,-0.0354,0,0,0,0,0,0,-0.0925,-0.0866,-0.0861,-0.08,-0.076,-0.0708,-0.0679,-0.067,-0.0626,-0.0628,-0.0597,-0.0585,-0.0526,-0.05,-0.0524,-0.0425,-0.0438,-0.0432,-0.0444,-0.0439,-0.0436,-0.0443,-0.0523,0,0,0,0,0,-0.092,-0.0878,-0.0829,-0.078,-0.076,-0.0723,-0.0696,-0.068,-0.0637,-0.062,-0.0585,-0.0543,-0.0496,-0.0467,-0.0421,-0.0358,-0.0345,-0.0331,-0.0328,-0.0325,-0.0319,-0.0282,-0.0275,-0.0349,-0.0349,-0.0349,0,0,-0.091,-0.0872,-0.0847,-0.0781,-0.0748,-0.0704,-0.0709,-0.0662,-0.0628,-0.0613,-0.0554,-0.0526,-0.0477,-0.0415,-0.0386,-0.0391,-0.0296,-0.032,-0.0319,-0.0314,-0.0278,-0.0271,-0.0264,-0.0347,-0.0347,-0.0347,0,0,-0.0867,-0.0836,-0.0791,-0.0758,-0.0708,-0.0683,-0.0673,-0.062,-0.0602,-0.0542,-0.0529,-0.0488,-0.0409,-0.0374,-0.0346,-0.0289,-0.0281,-0.0275,-0.0255,-0.0219,-0.0213,-0.0208,-0.0186,-0.0178,-0.027,-0.0269,-0.0269,0,-0.086,-0.0794,-0.0768,-0.0722,-0.0692,-0.0676,-0.0629,-0.0598,-0.0536,-0.0516,-0.0523,-0.0422,-0.0388,-0.0316,-0.0302,-0.0281,-0.0266,-0.0281,-0.0216,-0.021,-0.0205,-0.0184,-0.0176,-0.0269,-0.0269,-0.0269,-0.0269,0,-0.0786,-0.074,-0.071,-0.0651,-0.0617,-0.0571,-0.0537,-0.0506,-0.0493,-0.0467,-0.0405,-0.0363,-0.0309,-0.0291,-0.0277,-0.0216,-0.0221,-0.0222,-0.0235,-0.0198,-0.0177,-0.0169,-0.0268,-0.0268,-0.0269,-0.0269,0,0,-0.0748,-0.0674,-0.0663,-0.0635,-0.0579,-0.0542,-0.0494,-0.0441,-0.0414,-0.0372,-0.033,-0.0263,-0.0263,-0.0231,-0.0213,-0.0182,-0.0137,-0.0187,-0.0185,-0.0178,-0.0066,-0.0064,-0.0056,-0.0131,-0.013,-0.0129,-0.0069,0,-0.0698,-0.0613,-0.0588,-0.0515,-0.0471,-0.0455,-0.0413,-0.0373,-0.0347,-0.0305,-0.0276,-0.0228,-0.0233,-0.0213,-0.0182,-0.0149,-0.0114,-0.0153,-0.0091,-0.0089,-0.0103,-0.0045,-0.0044,0.001,-0.0061,-0.006,-0.0059,0,-0.0628,-0.0585,-0.0508,-0.0456,-0.0436,-0.0399,-0.0347,-0.0308,-0.0261,-0.0244,-0.0208,-0.0193,-0.014,-0.0156,-0.0083,-0.011,-0.0083,-0.0063,-0.006,-0.0053,-0.0071,-0.0035,0.0028,0.0036,-0.0046,-0.0047,-0.0048,0,-0.0606,-0.0528,-0.0472,-0.0448,-0.0386,-0.036,-0.0333,-0.0288,-0.0257,-0.0211,-0.019,-0.0139,-0.0111,-0.0071,-0.0042,-0.0056,0.003,0.0016,0.0047,0.0046,0.0064,0.0063,0.0133,0.008,0.008,0.008,0.008,0,-0.0553,-0.0506,-0.0461,-0.0426,-0.0373,-0.0344,-0.0291,-0.0263,-0.0223,-0.0181,-0.0164,-0.0125,-0.0088,-0.0044,-0.0021,0.0038,0.005,0.0066,0.0072,0.0065,0.0063,0.0084,0.0081,0.0082,0.0082,0.0081,0.0081,0,-0.0519,-0.0487,-0.0424,-0.037,-0.0355,-0.0318,-0.0271,-0.0236,-0.0209,-0.0157,-0.0142,-0.01,-0.0047,-0.0013,0.0054,0.007,0.0135,0.0139,0.0119,0.0122,0.0151,0.0148,0.0237,0.0251,0.0188,0.0189,0.0189,0,-0.0487,-0.045,-0.0392,-0.0363,-0.0336,-0.029,-0.0258,-0.0227,-0.0194,-0.0138,-0.0109,-0.0055,-0.001,0.0074,0.0112,0.0164,0.0171,0.0199,0.0179,0.0171,0.0173,0.017,0.0175,0.0202,0.0202,0.0203,0.0203,0,-0.0432,-0.0418,-0.0373,-0.0322,-0.0284,-0.0243,-0.0201,-0.0178,-0.014,-0.0103,-0.0049,-0.0014,0.0055,0.0109,0.0165,0.0195,0.0206,0.0209,0.0219,0.0213,0.02,0.0209,0.0129,0.0207,0.0207,0.0206,0.0206,0.0206,-0.0397,-0.0363,-0.0317,-0.0267,-0.0232,-0.0193,-0.0157,-0.0125,-0.008,-0.0021,-0.0005,0.0052,0.0099,0.0175,0.0206,0.0252,0.0249,0.0263,0.0267,0.027,0.0271,0.0192,0.0263,0.0262,0.0262,0.0262,0.0262,0,-0.0341,-0.031,-0.0264,-0.0206,-0.0166,-0.016,-0.0112,-0.0079,-0.0029,0.0014,0.0058,0.0121,0.0174,0.0217,0.0272,0.0301,0.0307,0.0314,0.0313,0.032,0.0271,0.0257,0.0308,0.0308,0.0308,0.0308,0.0308,0.0308,-0.0307,-0.0249,-0.0228,-0.0153,-0.0121,-0.0066,-0.0039,-0.0002,0.0032,0.0102,0.0146,0.0173,0.0217,0.0275,0.0325,0.0336,0.0356,0.0362,0.0374,0.0328,0.0323,0.0318,0.0305,0.0366,0.0366,0.042,0.042,0.042]},{"header":{"parameterUnit":"m.s-1","parameterCategory":1,"la1":30.2991,"la2":30.254,"lo1":-89.0895,"lo2":-89.0444,"dy":0.0017,"dx":0.0017,"nx":28,"ny":28,"refTime":"2024-10-02T03:00:00:Z","depth":0,"parameterNumber":3,"parameterNumberName":"V-component_of_WINDS"},"data":[0,0,0,0,0,0,0,0,0,0,0,0,0,0,0,0,0,0,0,0,0,0,0,0,0,0,0,0,0,0,0,0,0,0,0,0,0,0,0,0,0,0,0,0,0,0,0,0,0,0,0,0,0,0,0,0,0,0,-1.9546,-1.9545,0,-1.9487,-1.9486,-1.9485,-1.9587,-1.9591,-1.9594,-1.9598,-1.9527,-1.9522,-1.9516,0,0,0,0,0,0,0,0,0,0,0,0,0,-1.9741,-1.9737,-1.9546,-1.9545,-1.9545,-1.9487,-1.9486,-1.9485,-1.9587,-1.9591,-1.9595,-1.9599,-1.9528,-1.9522,-1.9516,0,0,0,0,0,0,0,0,0,0,0,0,0,-1.9666,-1.9736,-1.9546,-1.9589,-1.9592,-1.9487,-1.9486,-1.9485,-1.9586,-1.9591,-1.9596,-1.9601,-1.953,-1.9523,-1.9515,-1.9363,0,0,-1.9492,-1.9488,0,0,0,0,0,0,0,0,-1.967,-1.9659,-1.9583,-1.9586,-1.9589,-1.955,-1.9529,-1.9443,-1.9585,-1.9588,-1.9598,-1.9604,-1.9529,-1.9522,-1.9499,-1.9359,-1.9356,-1.9491,-1.9486,-1.9483,-1.9481,0,0,0,0,0,0,0,-1.9675,-1.9662,-1.9522,-1.9582,-1.9585,-1.9609,-1.9604,-1.9513,-1.953,-1.9588,-1.9595,-1.9587,-1.9532,-1.9506,-1.9498,-1.9355,-1.9491,-1.9484,-1.9479,-1.9476,-1.909,-1.9085,0,0,0,0,0,0,-1.9676,-1.9666,-1.9524,-1.9521,-1.9644,-1.9601,-1.9595,-1.9557,-1.9531,-1.9532,-1.9583,-1.9592,-1.9517,-1.9507,-1.9496,-1.9317,-1.9483,-1.9476,-1.9471,-1.9095,-1.9089,-1.9083,0,0,0,0,0,0,-1.968,-1.9663,-1.9527,-1.9595,-1.958,-1.9592,-1.9548,-1.9553,-1.9528,-1.9527,-1.953,-1.9554,-1.9521,-1.9507,-1.9396,-1.9316,-1.9472,-1.9465,-1.9102,-1.9093,-1.9086,-1.8957,0,0,0,0,0,0,-1.9685,-1.9664,-1.9607,-1.9593,-1.9576,-1.9429,-1.9543,-1.9548,-1.9515,-1.9527,-1.9501,-1.9502,-1.9524,-1.9407,-1.9389,-1.9308,-1.9459,-1.9109,-1.9098,-1.9088,-1.8968,-1.8945,-1.8925,0,0,0,0,0,-1.9692,-1.957,-1.9604,-1.9586,-1.9506,-1.9425,-1.9414,-1.9445,-1.9508,-1.9451,-1.9451,-1.9502,-1.9329,-1.9395,-1.9375,-1.9291,-1.9114,-1.9101,-1.9089,-1.8978,-1.895,-1.8926,0,0,0,0,0,0,-1.9569,-1.9569,-1.9606,-1.9477,-1.9451,-1.9442,-1.937,-1.9414,-1.9366,-1.9378,-1.9416,-1.9409,-1.9291,-1.928,-1.9354,-1.9143,-1.9232,-1.9214,-1.9154,-1.9127,-1.9106,-1.911,-1.9453,0,0,0,0,0,-1.9529,-1.9466,-1.9468,-1.9353,-1.9339,-1.9357,-1.9322,-1.9349,-1.9322,-1.931,-1.9302,-1.9271,-1.921,-1.9168,-1.9112,-1.8969,-1.8964,-1.8901,-1.8879,-1.8862,-1.8845,-1.877,-1.8742,-1.9041,-1.9041,-1.9041,0,0,-1.9441,-1.9433,-1.939,-1.9329,-1.9311,-1.9243,-1.9346,-1.9269,-1.9218,-1.9297,-1.9194,-1.9187,-1.9155,-1.9028,-1.8971,-1.9015,-1.8763,-1.8846,-1.8832,-1.8825,-1.8754,-1.8726,-1.8701,-1.9032,-1.9034,-1.9035,0,0,-1.9247,-1.9235,-1.9139,-1.9122,-1.9096,-1.911,-1.9087,-1.9073,-1.9073,-1.897,-1.9029,-1.8968,-1.8861,-1.8837,-1.8811,-1.8612,-1.8657,-1.8593,-1.8479,-1.8405,-1.8382,-1.8361,-1.829,-1.8264,-1.8577,-1.8577,-1.8577,0,-1.914,-1.9042,-1.9084,-1.9004,-1.8975,-1.9049,-1.8952,-1.8931,-1.8887,-1.8864,-1.8915,-1.8786,-1.8769,-1.8638,-1.8591,-1.8567,-1.8541,-1.8594,-1.8382,-1.8362,-1.8343,-1.8276,-1.8249,-1.8569,-1.857,-1.8571,-1.8571,0,-1.8913,-1.8844,-1.877,-1.8731,-1.8694,-1.8605,-1.8631,-1.8589,-1.862,-1.8627,-1.8523,-1.8507,-1.8449,-1.8421,-1.8448,-1.8293,-1.8322,-1.8377,-1.8466,-1.8306,-1.8244,-1.8218,-1.8558,-1.8561,-1.8563,-1.8565,0,0,-1.8635,-1.8624,-1.8596,-1.858,-1.8559,-1.8506,-1.8421,-1.837,-1.8332,-1.83,-1.8229,-1.814,-1.8192,-1.8162,-1.8188,-1.8123,-1.7968,-1.8187,-1.8187,-1.8146,-1.7797,-1.7755,-1.7725,-1.7999,-1.7995,-1.7991,-1.78,0,-1.8442,-1.83,-1.8337,-1.8194,-1.8132,-1.8203,-1.813,-1.8108,-1.8114,-1.806,-1.8066,-1.8002,-1.8076,-1.8059,-1.7998,-1.8,-1.7898,-1.8014,-1.7931,-1.7928,-1.7936,-1.7692,-1.7646,-1.7467,-1.7776,-1.7772,-1.7769,0,-1.8197,-1.8161,-1.8013,-1.8007,-1.7982,-1.7915,-1.7872,-1.7821,-1.7798,-1.7807,-1.7776,-1.7816,-1.7731,-1.7823,-1.7706,-1.7784,-1.7753,-1.7749,-1.7743,-1.7735,-1.7837,-1.7676,-1.741,-1.7382,-1.7731,-1.7734,-1.7736,0,-1.8009,-1.7923,-1.7825,-1.7809,-1.7798,-1.775,-1.7743,-1.7726,-1.7693,-1.7655,-1.7634,-1.7585,-1.7557,-1.7517,-1.7542,-1.7607,-1.7421,-1.7515,-1.7424,-1.7423,-1.7379,-1.7381,-1.7103,-1.7361,-1.7362,-1.7362,-1.7363,0,-1.7789,-1.7695,-1.7741,-1.7679,-1.7578,-1.7621,-1.7518,-1.7518,-1.7504,-1.7443,-1.7501,-1.7442,-1.748,-1.7423,-1.7442,-1.7343,-1.733,-1.7333,-1.7339,-1.7327,-1.7326,-1.7305,-1.7318,-1.7355,-1.7357,-1.7358,-1.7359,0,-1.756,-1.7587,-1.7484,-1.7485,-1.7483,-1.7407,-1.7407,-1.735,-1.7363,-1.7285,-1.7269,-1.7287,-1.7224,-1.7247,-1.7178,-1.7191,-1.7064,-1.7087,-1.7073,-1.7078,-1.6986,-1.6994,-1.6683,-1.6644,-1.6928,-1.6926,-1.6923,0,-1.7416,-1.7347,-1.7342,-1.7308,-1.7298,-1.7241,-1.721,-1.7251,-1.7215,-1.7187,-1.7133,-1.7077,-1.7033,-1.6929,-1.6935,-1.6883,-1.6904,-1.6799,-1.6896,-1.6887,-1.6902,-1.6905,-1.6898,-1.6778,-1.6775,-1.6772,-1.677,0,-1.7159,-1.7177,-1.7132,-1.7092,-1.7054,-1.7023,-1.6997,-1.6965,-1.7005,-1.6962,-1.6901,-1.6868,-1.6802,-1.6744,-1.6699,-1.6689,-1.6735,-1.6741,-1.6717,-1.6703,-1.6697,-1.6699,-1.7019,-1.6746,-1.6749,-1.6751,-1.6752,-1.6753,-1.6968,-1.6911,-1.69,-1.6848,-1.6835,-1.681,-1.6757,-1.6766,-1.6717,-1.6669,-1.6695,-1.6624,-1.6606,-1.6551,-1.6535,-1.6479,-1.6519,-1.6484,-1.6475,-1.6466,-1.6454,-1.6709,-1.647,-1.6471,-1.6472,-1.6472,-1.6473,0,-1.6713,-1.6712,-1.6664,-1.6629,-1.6588,-1.6641,-1.6616,-1.6577,-1.6516,-1.6496,-1.6455,-1.6385,-1.6331,-1.6335,-1.6284,-1.6239,-1.6259,-1.6224,-1.6227,-1.6224,-1.6421,-1.6446,-1.6209,-1.6209,-1.6209,-1.6209,-1.6209,-1.6209,-1.6576,-1.6483,-1.65,-1.6401,-1.6399,-1.6334,-1.6315,-1.6292,-1.6278,-1.6199,-1.6157,-1.6161,-1.6151,-1.6101,-1.6054,-1.6056,-1.6034,-1.5991,-1.6001,-1.6184,-1.621,-1.6235,-1.6259,-1.5986,-1.5986,-1.5809,-1.5807,-1.5806]}]]